Time,TemperatureF,DewpointF,PressureIn,WindDirection,WindDirectionDegrees,WindSpeedMPH,WindSpeedGustMPH,Humidity,HourlyPrecipIn,Conditions,Clouds,dailyrainin,SoftwareType,DateUTC
2013-03-28 00:00:00,27.8,26.6,30.30,SW,222,7.0,7.0,95,0.00,,---,0.00,VWS V14.01,2013-03-28 04:00:00,
2013-03-28 00:05:00,27.8,26.6,30.30,WNW,289,1.0,9.0,95,0.00,,---,0.00,VWS V14.01,2013-03-28 04:05:00,
2013-03-28 00:10:00,27.8,26.6,30.30,SW,231,1.0,9.0,95,0.00,,---,0.00,VWS V14.01,2013-03-28 04:10:00,
2013-03-28 00:15:00,27.8,26.6,30.30,SW,225,3.0,9.0,95,0.00,,---,0.00,VWS V14.01,2013-03-28 04:15:00,
2013-03-28 00:20:00,27.8,26.6,30.30,West,262,4.0,9.0,95,0.00,,---,0.00,VWS V14.01,2013-03-28 04:20:00,
2013-03-28 00:25:00,27.8,26.3,30.30,WSW,247,6.0,9.0,94,0.00,,---,0.00,VWS V14.01,2013-03-28 04:25:00,
2013-03-28 00:30:00,27.8,26.6,30.29,WSW,238,2.0,6.0,95,0.00,,---,0.00,VWS V14.01,2013-03-28 04:30:00,
2013-03-28 00:35:00,27.8,26.6,30.29,South,190,4.0,7.0,95,0.00,,---,0.00,VWS V14.01,2013-03-28 04:35:00,
2013-03-28 00:40:00,27.7,26.5,30.29,SSW,201,2.0,7.0,95,0.00,,---,0.00,VWS V14.01,2013-03-28 04:40:00,
2013-03-28 00:45:00,27.7,26.5,30.29,WSW,250,3.0,7.0,95,0.00,,---,0.00,VWS V14.01,2013-03-28 04:45:00,
2013-03-28 00:50:00,27.6,26.4,30.29,NW,318,5.0,8.0,95,0.00,,---,0.00,VWS V14.01,2013-03-28 04:50:00,
2013-03-28 00:56:00,27.6,26.4,30.29,SW,226,4.0,8.0,95,0.00,,---,0.00,VWS V14.01,2013-03-28 04:56:00,
2013-03-28 01:01:00,27.5,26.3,30.29,West,270,1.0,3.0,95,0.00,,---,0.00,VWS V14.01,2013-03-28 05:01:00,
2013-03-28 01:06:00,27.5,26.3,30.28,NW,309,0.0,6.0,95,0.00,,---,0.00,VWS V14.01,2013-03-28 05:06:00,
2013-03-28 01:11:00,27.5,26.3,30.28,West,274,1.0,6.0,95,0.00,,---,0.00,VWS V14.01,2013-03-28 05:11:00,
2013-03-28 01:16:00,27.5,26.5,30.28,SSW,210,0.0,7.0,96,0.00,,---,0.00,VWS V14.01,2013-03-28 05:16:00,
2013-03-28 01:21:00,27.5,26.5,30.28,NNW,332,0.0,7.0,96,0.00,,---,0.00,VWS V14.01,2013-03-28 05:21:00,
2013-03-28 01:26:00,27.4,26.4,30.28,WSW,249,3.0,11.0,96,0.00,,---,0.00,VWS V14.01,2013-03-28 05:26:00,
2013-03-28 01:31:00,27.4,26.4,30.28,West,281,3.0,11.0,96,0.00,,---,0.00,VWS V14.01,2013-03-28 05:31:00,
2013-03-28 01:36:00,27.4,26.4,30.28,NNE,19,2.0,11.0,96,0.00,,---,0.00,VWS V14.01,2013-03-28 05:36:00,
2013-03-28 01:41:00,27.3,26.3,30.28,SW,217,6.0,11.0,96,0.00,,---,0.00,VWS V14.01,2013-03-28 05:41:00,
2013-03-28 01:46:00,27.3,26.3,30.28,West,262,1.0,11.0,96,0.00,,---,0.00,VWS V14.01,2013-03-28 05:46:00,
2013-03-28 01:51:00,27.3,26.3,30.28,WSW,253,5.0,11.0,96,0.00,,---,0.00,VWS V14.01,2013-03-28 05:51:00,
2013-03-28 01:56:00,27.3,26.3,30.28,West,276,1.0,11.0,96,0.00,,---,0.00,VWS V14.01,2013-03-28 05:56:00,
2013-03-28 02:02:00,27.3,26.3,30.28,WSW,257,8.0,9.0,96,0.00,,---,0.00,VWS V14.01,2013-03-28 06:02:00,
2013-03-28 02:07:00,27.2,26.2,30.28,SSW,207,3.0,9.0,96,0.00,,---,0.00,VWS V14.01,2013-03-28 06:07:00,
2013-03-28 02:12:00,27.2,26.2,30.28,SW,217,1.0,9.0,96,0.00,,---,0.00,VWS V14.01,2013-03-28 06:12:00,
2013-03-28 02:17:00,27.2,26.2,30.28,WSW,240,4.0,9.0,96,0.00,,---,0.00,VWS V14.01,2013-03-28 06:17:00,
2013-03-28 02:22:00,27.2,26.2,30.28,WSW,256,2.0,9.0,96,0.00,,---,0.00,VWS V14.01,2013-03-28 06:22:00,
2013-03-28 02:27:00,27.2,26.2,30.28,WNW,293,3.0,9.0,96,0.00,,---,0.00,VWS V14.01,2013-03-28 06:27:00,
2013-03-28 02:32:00,27.1,26.1,30.28,WNW,287,4.0,4.0,96,0.00,,---,0.00,VWS V14.01,2013-03-28 06:32:00,
2013-03-28 02:37:00,27.1,26.1,30.28,WNW,300,9.0,9.0,96,0.00,,---,0.00,VWS V14.01,2013-03-28 06:37:00,
2013-03-28 02:42:00,27.1,26.1,30.28,North,359,2.0,9.0,96,0.00,,---,0.00,VWS V14.01,2013-03-28 06:42:00,
2013-03-28 02:47:00,27.1,26.1,30.28,NW,311,2.0,9.0,96,0.00,,---,0.00,VWS V14.01,2013-03-28 06:47:00,
2013-03-28 02:52:00,27.1,26.1,30.28,NW,313,2.0,9.0,96,0.00,,---,0.00,VWS V14.01,2013-03-28 06:52:00,
2013-03-28 02:57:00,27.1,26.1,30.28,South,169,1.0,9.0,96,0.00,,---,0.00,VWS V14.01,2013-03-28 06:57:00,
2013-03-28 03:02:00,27.1,26.1,30.28,SW,231,2.0,5.0,96,0.00,,---,0.00,VWS V14.01,2013-03-28 07:02:00,
2013-03-28 03:07:00,27.0,26.0,30.28,WNW,299,0.0,7.0,96,0.00,,---,0.00,VWS V14.01,2013-03-28 07:07:00,
2013-03-28 03:12:00,27.0,26.0,30.28,SW,230,5.0,7.0,96,0.00,,---,0.00,VWS V14.01,2013-03-28 07:12:00,
2013-03-28 03:17:00,27.0,26.0,30.28,NW,323,0.0,7.0,96,0.00,,---,0.00,VWS V14.01,2013-03-28 07:17:00,
2013-03-28 03:22:00,27.0,26.0,30.27,South,188,2.0,7.0,96,0.00,,---,0.00,VWS V14.01,2013-03-28 07:22:00,
2013-03-28 03:27:00,27.0,26.0,30.27,NNE,25,1.0,7.0,96,0.00,,---,0.00,VWS V14.01,2013-03-28 07:27:00,
2013-03-28 03:32:00,26.9,25.9,30.27,East,98,1.0,5.0,96,0.00,,---,0.00,VWS V14.01,2013-03-28 07:32:00,
2013-03-28 03:37:00,26.9,25.9,30.27,SW,229,2.0,5.0,96,0.00,,---,0.00,VWS V14.01,2013-03-28 07:37:00,
2013-03-28 03:42:00,27.0,26.0,30.27,WNW,289,1.0,6.0,96,0.00,,---,0.00,VWS V14.01,2013-03-28 07:42:00,
2013-03-28 03:47:00,26.9,25.9,30.27,West,273,6.0,6.0,96,0.00,,---,0.00,VWS V14.01,2013-03-28 07:47:00,
2013-03-28 03:52:00,27.0,26.0,30.27,West,277,1.0,13.0,96,0.00,,---,0.00,VWS V14.01,2013-03-28 07:52:00,
2013-03-28 03:57:00,27.0,26.0,30.27,WNW,287,3.0,13.0,96,0.00,,---,0.00,VWS V14.01,2013-03-28 07:57:00,
2013-03-28 04:02:00,27.0,26.0,30.27,SSE,160,2.0,5.0,96,0.00,,---,0.00,VWS V14.01,2013-03-28 08:02:00,
2013-03-28 04:08:00,26.9,25.9,30.27,SSW,212,3.0,8.0,96,0.00,,---,0.00,VWS V14.01,2013-03-28 08:08:00,
2013-03-28 04:12:00,26.9,25.9,30.27,SSW,196,1.0,8.0,96,0.00,,---,0.00,VWS V14.01,2013-03-28 08:12:00,
2013-03-28 04:17:00,26.9,25.9,30.27,West,281,3.0,8.0,96,0.00,,---,0.00,VWS V14.01,2013-03-28 08:17:00,
2013-03-28 04:22:00,26.8,25.8,30.27,WNW,295,5.0,8.0,96,0.00,,---,0.00,VWS V14.01,2013-03-28 08:22:00,
2013-03-28 04:27:00,26.7,25.7,30.27,WSW,248,1.0,8.0,96,0.00,,---,0.00,VWS V14.01,2013-03-28 08:27:00,
2013-03-28 04:33:00,26.7,25.7,30.27,WNW,302,4.0,8.0,96,0.00,,---,0.00,VWS V14.01,2013-03-28 08:33:00,
2013-03-28 04:38:00,26.7,25.7,30.27,WSW,238,1.0,8.0,96,0.00,,---,0.00,VWS V14.01,2013-03-28 08:38:00,
2013-03-28 04:43:00,26.6,25.4,30.27,WNW,287,1.0,8.0,95,0.00,,---,0.00,VWS V14.01,2013-03-28 08:43:00,
2013-03-28 04:48:00,26.6,25.4,30.27,South,170,0.0,9.0,95,0.00,,---,0.00,VWS V14.01,2013-03-28 08:48:00,
2013-03-28 04:53:00,26.6,25.4,30.27,WSW,239,2.0,9.0,95,0.00,,---,0.00,VWS V14.01,2013-03-28 08:53:00,
2013-03-28 04:58:00,26.6,25.4,30.27,SW,219,6.0,9.0,95,0.00,,---,0.00,VWS V14.01,2013-03-28 08:58:00,
2013-03-28 05:03:00,26.6,25.4,30.27,NW,312,1.0,5.0,95,0.00,,---,0.00,VWS V14.01,2013-03-28 09:03:00,
2013-03-28 05:08:00,26.6,25.4,30.27,West,267,1.0,11.0,95,0.00,,---,0.00,VWS V14.01,2013-03-28 09:08:00,
2013-03-28 05:13:00,26.6,25.1,30.26,West,259,1.0,11.0,94,0.00,,---,0.00,VWS V14.01,2013-03-28 09:13:00,
2013-03-28 05:18:00,26.5,25.0,30.27,SW,232,1.0,11.0,94,0.00,,---,0.00,VWS V14.01,2013-03-28 09:18:00,
2013-03-28 05:23:00,26.5,25.0,30.27,South,176,0.0,11.0,94,0.00,,---,0.00,VWS V14.01,2013-03-28 09:23:00,
2013-03-28 05:28:00,26.4,24.9,30.27,NW,311,0.0,11.0,94,0.00,,---,0.00,VWS V14.01,2013-03-28 09:28:00,
2013-03-28 05:33:00,26.4,24.9,30.27,WNW,289,1.0,4.0,94,0.00,,---,0.00,VWS V14.01,2013-03-28 09:33:00,
2013-03-28 05:38:00,26.4,24.9,30.26,WSW,241,2.0,5.0,94,0.00,,---,0.00,VWS V14.01,2013-03-28 09:38:00,
2013-03-28 05:43:00,26.4,24.9,30.27,NNW,342,0.0,5.0,94,0.00,,---,0.00,VWS V14.01,2013-03-28 09:43:00,
2013-03-28 05:48:00,26.4,24.9,30.27,SW,217,5.0,6.0,94,0.00,,---,0.00,VWS V14.01,2013-03-28 09:48:00,
2013-03-28 05:53:00,26.5,25.0,30.27,SW,231,2.0,7.0,94,0.00,,---,0.00,VWS V14.01,2013-03-28 09:53:00,
2013-03-28 05:58:00,26.4,24.6,30.27,NE,44,2.0,7.0,93,0.00,,---,0.00,VWS V14.01,2013-03-28 09:58:00,
2013-03-28 06:03:00,26.4,24.6,30.27,NNW,345,1.0,4.0,93,0.00,,---,0.00,VWS V14.01,2013-03-28 10:03:00,
2013-03-28 06:08:00,26.4,24.6,30.27,WSW,241,2.0,7.0,93,0.00,,---,0.00,VWS V14.01,2013-03-28 10:08:00,
2013-03-28 06:13:00,26.4,24.6,30.27,SW,236,2.0,7.0,93,0.00,,---,0.00,VWS V14.01,2013-03-28 10:13:00,
2013-03-28 06:18:00,26.5,24.8,30.27,SW,222,2.0,7.0,93,0.00,,---,0.00,VWS V14.01,2013-03-28 10:18:00,
2013-03-28 06:23:00,26.6,24.6,30.27,WNW,287,6.0,8.0,92,0.00,,---,0.00,VWS V14.01,2013-03-28 10:23:00,
2013-03-28 06:28:00,26.6,24.6,30.28,WSW,255,6.0,8.0,92,0.00,,---,0.00,VWS V14.01,2013-03-28 10:28:00,
2013-03-28 06:34:00,26.6,24.3,30.27,WSW,245,1.0,8.0,91,0.00,,---,0.00,VWS V14.01,2013-03-28 10:34:00,
2013-03-28 06:39:00,26.6,24.3,30.27,West,270,0.0,8.0,91,0.00,,---,0.00,VWS V14.01,2013-03-28 10:39:00,
2013-03-28 06:44:00,26.6,24.3,30.28,WNW,290,2.0,8.0,91,0.00,,---,0.00,VWS V14.01,2013-03-28 10:44:00,
2013-03-28 06:49:00,26.6,24.1,30.27,West,269,4.0,8.0,90,0.00,,---,0.00,VWS V14.01,2013-03-28 10:49:00,
2013-03-28 06:54:00,26.6,24.1,30.28,WNW,290,2.0,10.0,90,0.00,,---,0.00,VWS V14.01,2013-03-28 10:54:00,
2013-03-28 06:59:00,26.6,24.1,30.28,WNW,298,1.0,10.0,90,0.00,,---,0.00,VWS V14.01,2013-03-28 10:59:00,
2013-03-28 07:04:00,26.5,24.0,30.28,SW,219,2.0,9.0,90,0.00,,---,0.00,VWS V14.01,2013-03-28 11:04:00,
2013-03-28 07:09:00,26.3,23.8,30.28,South,172,0.0,11.0,90,0.00,,---,0.00,VWS V14.01,2013-03-28 11:09:00,
2013-03-28 07:14:00,26.0,23.5,30.28,NW,309,3.0,11.0,90,0.00,,---,0.00,VWS V14.01,2013-03-28 11:14:00,
2013-03-28 07:19:00,25.8,23.3,30.28,WNW,285,1.0,11.0,90,0.00,,---,0.00,VWS V14.01,2013-03-28 11:19:00,
2013-03-28 07:24:00,25.6,23.1,30.28,NW,307,6.0,11.0,90,0.00,,---,0.00,VWS V14.01,2013-03-28 11:24:00,
2013-03-28 07:29:00,25.5,23.0,30.29,West,277,1.0,11.0,90,0.00,,---,0.00,VWS V14.01,2013-03-28 11:29:00,
2013-03-28 07:34:00,25.3,22.8,30.29,WSW,255,4.0,5.0,90,0.00,,---,0.00,VWS V14.01,2013-03-28 11:34:00,
2013-03-28 07:39:00,25.3,22.8,30.29,West,259,0.0,7.0,90,0.00,,---,0.00,VWS V14.01,2013-03-28 11:39:00,
2013-03-28 07:44:00,25.2,23.0,30.29,WNW,293,1.0,7.0,91,0.00,,---,0.00,VWS V14.01,2013-03-28 11:44:00,
2013-03-28 07:49:00,25.2,23.0,30.30,NW,304,1.0,7.0,91,0.00,,---,0.00,VWS V14.01,2013-03-28 11:49:00,
2013-03-28 07:54:00,25.3,22.8,30.30,SSW,195,0.0,8.0,90,0.00,,---,0.00,VWS V14.01,2013-03-28 11:54:00,
2013-03-28 07:59:00,25.3,22.8,30.30,WSW,242,1.0,8.0,90,0.00,,---,0.00,VWS V14.01,2013-03-28 11:59:00,
2013-03-28 08:04:00,25.7,23.2,30.30,WNW,295,3.0,4.0,90,0.00,,---,0.00,VWS V14.01,2013-03-28 12:04:00,
2013-03-28 08:09:00,26.3,23.8,30.30,SSW,200,0.0,5.0,90,0.00,,---,0.00,VWS V14.01,2013-03-28 12:09:00,
2013-03-28 08:14:00,26.8,23.7,30.30,NNW,346,2.0,6.0,88,0.00,,---,0.00,VWS V14.01,2013-03-28 12:14:00,
2013-03-28 08:19:00,26.7,23.4,30.30,WNW,295,2.0,6.0,87,0.00,,---,0.00,VWS V14.01,2013-03-28 12:19:00,
2013-03-28 08:24:00,26.7,23.4,30.30,NNE,13,0.0,6.0,87,0.00,,---,0.00,VWS V14.01,2013-03-28 12:24:00,
2013-03-28 08:29:00,26.8,23.5,30.31,West,279,0.0,6.0,87,0.00,,---,0.00,VWS V14.01,2013-03-28 12:29:00,
2013-03-28 08:34:00,26.9,23.6,30.31,WNW,293,1.0,4.0,87,0.00,,---,0.00,VWS V14.01,2013-03-28 12:34:00,
2013-03-28 08:39:00,26.9,23.3,30.31,WNW,284,2.0,7.0,86,0.00,,---,0.00,VWS V14.01,2013-03-28 12:39:00,
2013-03-28 08:44:00,26.9,23.3,30.31,WSW,250,2.0,7.0,86,0.00,,---,0.00,VWS V14.01,2013-03-28 12:44:00,
2013-03-28 08:49:00,27.0,23.4,30.31,North,352,3.0,8.0,86,0.00,,---,0.00,VWS V14.01,2013-03-28 12:49:00,
2013-03-28 08:54:00,27.0,23.6,30.31,WSW,252,1.0,9.0,87,0.00,,---,0.00,VWS V14.01,2013-03-28 12:54:00,
2013-03-28 08:59:00,27.1,23.5,30.31,West,273,4.0,9.0,86,0.00,,---,0.00,VWS V14.01,2013-03-28 12:59:00,
2013-03-28 09:04:00,27.2,23.6,30.31,WNW,293,4.0,7.0,86,0.00,,---,0.00,VWS V14.01,2013-03-28 13:04:00,
2013-03-28 09:09:00,27.4,23.8,30.31,WNW,302,0.0,7.0,86,0.00,,---,0.00,VWS V14.01,2013-03-28 13:09:00,
2013-03-28 09:14:00,27.7,23.8,30.32,West,281,1.0,7.0,85,0.00,,---,0.00,VWS V14.01,2013-03-28 13:14:00,
2013-03-28 09:19:00,28.1,24.2,30.32,SE,139,0.0,7.0,85,0.00,,---,0.00,VWS V14.01,2013-03-28 13:19:00,
2013-03-28 09:24:00,28.2,24.0,30.32,WNW,282,1.0,7.0,84,0.00,,---,0.00,VWS V14.01,2013-03-28 13:24:00,
2013-03-28 09:29:00,28.6,24.1,30.32,NW,304,1.0,8.0,83,0.00,,---,0.00,VWS V14.01,2013-03-28 13:29:00,
2013-03-28 09:34:00,28.6,23.8,30.32,WNW,290,5.0,11.0,82,0.00,,---,0.00,VWS V14.01,2013-03-28 13:34:00,
2013-03-28 09:39:00,28.6,23.8,30.32,NW,304,2.0,11.0,82,0.00,,---,0.00,VWS V14.01,2013-03-28 13:39:00,
2013-03-28 09:44:00,29.0,24.2,30.32,West,279,1.0,11.0,82,0.00,,---,0.00,VWS V14.01,2013-03-28 13:44:00,
2013-03-28 09:49:00,29.3,24.2,30.32,West,267,6.0,11.0,81,0.00,,---,0.00,VWS V14.01,2013-03-28 13:49:00,
2013-03-28 09:55:00,29.0,23.6,30.32,WNW,286,4.0,11.0,80,0.00,,---,0.00,VWS V14.01,2013-03-28 13:55:00,
2013-03-28 10:00:00,28.9,23.8,30.32,WSW,242,3.0,11.0,81,0.00,,---,0.00,VWS V14.01,2013-03-28 14:00:00,
2013-03-28 10:05:00,28.9,23.5,30.32,WNW,295,2.0,12.0,80,0.00,,---,0.00,VWS V14.01,2013-03-28 14:05:00,
2013-03-28 10:10:00,28.8,23.1,30.32,SSW,193,3.0,12.0,79,0.00,,---,0.00,VWS V14.01,2013-03-28 14:10:00,
2013-03-28 10:15:00,28.9,23.2,30.32,SE,139,6.0,14.0,79,0.00,,---,0.00,VWS V14.01,2013-03-28 14:15:00,
2013-03-28 10:20:00,29.3,23.3,30.32,NW,308,6.0,16.0,78,0.00,,---,0.00,VWS V14.01,2013-03-28 14:20:00,
2013-03-28 10:25:00,29.8,23.8,30.32,SW,232,10.0,16.0,78,0.00,,---,0.00,VWS V14.01,2013-03-28 14:25:00,
2013-03-28 10:30:00,29.8,23.5,30.32,West,264,1.0,2.0,77,0.00,,---,0.00,VWS V14.01,2013-03-28 14:30:00,
2013-03-28 10:35:00,29.9,23.6,30.32,SSW,194,2.0,10.0,77,0.00,,---,0.00,VWS V14.01,2013-03-28 14:35:00,
2013-03-28 10:40:00,30.0,23.4,30.32,SSW,208,3.0,15.0,76,0.00,,---,0.00,VWS V14.01,2013-03-28 14:40:00,
2013-03-28 10:45:00,30.3,24.0,30.32,West,267,3.0,15.0,77,0.00,,---,0.00,VWS V14.01,2013-03-28 14:45:00,
2013-03-28 10:50:00,30.5,24.2,30.32,WNW,287,2.0,15.0,77,0.00,,---,0.00,VWS V14.01,2013-03-28 14:50:00,
2013-03-28 10:55:00,31.1,23.8,30.32,West,270,3.0,15.0,74,0.00,,---,0.00,VWS V14.01,2013-03-28 14:55:00,
2013-03-28 11:00:00,31.9,24.2,30.32,WNW,298,6.0,6.0,73,0.00,,---,0.00,VWS V14.01,2013-03-28 15:00:00,
2013-03-28 11:05:00,31.9,23.9,30.32,WNW,290,3.0,10.0,72,0.00,,---,0.00,VWS V14.01,2013-03-28 15:05:00,
2013-03-28 11:10:00,32.0,23.7,30.32,SW,232,6.0,11.0,71,0.00,,---,0.00,VWS V14.01,2013-03-28 15:10:00,
2013-03-28 11:15:00,32.1,24.1,30.32,West,280,4.0,11.0,72,0.00,,---,0.00,VWS V14.01,2013-03-28 15:15:00,
2013-03-28 11:20:00,32.3,24.0,30.32,SW,224,6.0,16.0,71,0.00,,---,0.00,VWS V14.01,2013-03-28 15:20:00,
2013-03-28 11:25:00,33.0,24.3,30.32,West,262,3.0,16.0,70,0.00,,---,0.00,VWS V14.01,2013-03-28 15:25:00,
2013-03-28 11:30:00,32.5,23.5,30.32,WSW,257,5.0,9.0,69,0.00,,---,0.00,VWS V14.01,2013-03-28 15:30:00,
2013-03-28 11:35:00,32.4,23.7,30.32,SSW,211,11.0,12.0,70,0.00,,---,0.00,VWS V14.01,2013-03-28 15:35:00,
2013-03-28 11:40:00,32.5,23.8,30.32,WSW,248,12.0,12.0,70,0.01,,---,0.01,VWS V14.01,2013-03-28 15:40:00,
2013-03-28 11:45:00,32.9,23.9,30.32,West,274,3.0,13.0,69,0.01,,---,0.01,VWS V14.01,2013-03-28 15:45:00,
2013-03-28 11:50:00,32.8,23.4,30.32,NW,305,6.0,13.0,68,0.01,,---,0.01,VWS V14.01,2013-03-28 15:50:00,
2013-03-28 11:55:00,32.9,23.9,30.32,West,278,8.0,13.0,69,0.01,,---,0.01,VWS V14.01,2013-03-28 15:55:00,
2013-03-28 12:00:00,33.4,23.6,30.32,West,260,2.0,7.0,67,0.02,,---,0.02,VWS V14.01,2013-03-28 16:00:00,
2013-03-28 12:05:00,33.6,23.8,30.32,WSW,240,7.0,10.0,67,0.02,,---,0.02,VWS V14.01,2013-03-28 16:05:00,
2013-03-28 12:10:00,34.0,24.2,30.32,WNW,288,5.0,12.0,67,0.02,,---,0.02,VWS V14.01,2013-03-28 16:10:00,
2013-03-28 12:15:00,34.1,24.3,30.32,SW,232,8.0,12.0,67,0.03,,---,0.03,VWS V14.01,2013-03-28 16:15:00,
2013-03-28 12:20:00,34.4,24.6,30.32,NNE,19,4.0,12.0,67,0.03,,---,0.03,VWS V14.01,2013-03-28 16:20:00,
2013-03-28 12:25:00,35.1,24.9,30.32,WNW,302,4.0,16.0,66,0.04,,---,0.04,VWS V14.01,2013-03-28 16:25:00,
2013-03-28 12:30:00,35.0,24.1,30.32,WNW,300,4.0,8.0,64,0.04,,---,0.04,VWS V14.01,2013-03-28 16:30:00,
2013-03-28 12:35:00,34.4,23.5,30.32,West,267,4.0,13.0,64,0.05,,---,0.05,VWS V14.01,2013-03-28 16:35:00,
2013-03-28 12:40:00,34.7,23.8,30.32,NW,323,7.0,13.0,64,0.05,,---,0.05,VWS V14.01,2013-03-28 16:40:00,
2013-03-28 12:45:00,34.5,24.0,30.31,WNW,296,9.0,13.0,65,0.06,,---,0.06,VWS V14.01,2013-03-28 16:45:00,
2013-03-28 12:50:00,35.3,24.4,30.31,WSW,252,11.0,13.0,64,0.07,,---,0.07,VWS V14.01,2013-03-28 16:50:00,
2013-03-28 12:55:00,35.3,24.0,30.31,WNW,301,5.0,15.0,63,0.07,,---,0.07,VWS V14.01,2013-03-28 16:55:00,
2013-03-28 13:00:00,35.7,24.7,30.31,WNW,293,6.0,9.0,64,0.06,,---,0.07,VWS V14.01,2013-03-28 17:00:00,
2013-03-28 13:05:00,35.4,24.1,30.31,NW,322,3.0,11.0,63,0.06,,---,0.07,VWS V14.01,2013-03-28 17:05:00,
2013-03-28 13:10:00,35.6,23.9,30.31,NW,319,2.0,13.0,62,0.06,,---,0.07,VWS V14.01,2013-03-28 17:10:00,
2013-03-28 13:15:00,35.6,23.9,30.31,WNW,298,3.0,13.0,62,0.06,,---,0.07,VWS V14.01,2013-03-28 17:15:00,
2013-03-28 13:20:00,35.9,24.2,30.31,West,268,5.0,13.0,62,0.06,,---,0.07,VWS V14.01,2013-03-28 17:20:00,
2013-03-28 13:25:00,36.3,24.1,30.31,SW,225,8.0,13.0,61,0.06,,---,0.07,VWS V14.01,2013-03-28 17:25:00,
2013-03-28 13:30:00,36.7,24.9,30.31,WSW,240,2.0,5.0,62,0.03,,---,0.07,VWS V14.01,2013-03-28 17:30:00,
2013-03-28 13:35:00,37.1,24.9,30.31,SW,235,10.0,11.0,61,0.03,,---,0.07,VWS V14.01,2013-03-28 17:35:00,
2013-03-28 13:41:00,37.2,25.0,30.31,NNW,347,7.0,14.0,61,0.03,,---,0.07,VWS V14.01,2013-03-28 17:41:00,
2013-03-28 13:46:00,37.8,25.6,30.31,West,278,5.0,14.0,61,0.03,,---,0.07,VWS V14.01,2013-03-28 17:46:00,
2013-03-28 13:51:00,37.3,23.9,30.31,NW,312,3.0,14.0,58,0.03,,---,0.07,VWS V14.01,2013-03-28 17:51:00,
2013-03-28 13:56:00,36.8,24.2,30.30,NNW,342,1.0,14.0,60,0.03,,---,0.07,VWS V14.01,2013-03-28 17:56:00,
2013-03-28 14:01:00,37.0,24.0,30.30,SW,222,7.0,10.0,59,0.01,,---,0.08,VWS V14.01,2013-03-28 18:01:00,
2013-03-28 14:06:00,37.4,24.0,30.30,NW,320,5.0,11.0,58,0.01,,---,0.08,VWS V14.01,2013-03-28 18:06:00,
2013-03-28 14:11:00,37.2,23.8,30.30,WNW,300,5.0,16.0,58,0.02,,---,0.09,VWS V14.01,2013-03-28 18:11:00,
2013-03-28 14:16:00,37.8,24.8,30.30,WSW,256,9.0,16.0,59,0.03,,---,0.10,VWS V14.01,2013-03-28 18:16:00,
2013-03-28 14:21:00,37.2,23.4,30.30,South,174,4.0,16.0,57,0.04,,---,0.11,VWS V14.01,2013-03-28 18:21:00,
2013-03-28 14:26:00,36.8,23.4,30.29,WNW,302,6.0,16.0,58,0.04,,---,0.11,VWS V14.01,2013-03-28 18:26:00,
2013-03-28 14:31:00,37.2,24.2,30.30,WNW,302,4.0,4.0,59,0.04,,---,0.11,VWS V14.01,2013-03-28 18:31:00,
2013-03-28 14:37:00,36.9,23.1,30.29,NW,308,9.0,13.0,57,0.05,,---,0.12,VWS V14.01,2013-03-28 18:37:00,
2013-03-28 14:42:00,37.5,23.7,30.29,NW,314,2.0,13.0,57,0.05,,---,0.12,VWS V14.01,2013-03-28 18:42:00,
2013-03-28 14:47:00,38.6,24.7,30.29,WNW,290,6.0,13.0,57,0.06,,---,0.13,VWS V14.01,2013-03-28 18:47:00,
2013-03-28 14:52:00,39.2,24.8,30.29,West,260,5.0,13.0,56,0.07,,---,0.14,VWS V14.01,2013-03-28 18:52:00,
2013-03-28 14:57:00,39.0,23.3,30.29,SSW,203,2.0,15.0,53,0.07,,---,0.14,VWS V14.01,2013-03-28 18:57:00,
2013-03-28 15:02:00,38.8,24.0,30.29,NNW,345,4.0,10.0,55,0.06,,---,0.14,VWS V14.01,2013-03-28 19:02:00,
2013-03-28 15:07:00,38.1,23.4,30.29,West,278,1.0,11.0,55,0.07,,---,0.15,VWS V14.01,2013-03-28 19:07:00,
2013-03-28 15:12:00,38.0,24.1,30.29,SW,222,4.0,11.0,57,0.07,,---,0.15,VWS V14.01,2013-03-28 19:12:00,
2013-03-28 15:17:00,37.9,23.6,30.29,NNW,332,4.0,14.0,56,0.07,,---,0.15,VWS V14.01,2013-03-28 19:17:00,
2013-03-28 15:22:00,38.0,23.3,30.29,NNW,338,2.0,14.0,55,0.07,,---,0.15,VWS V14.01,2013-03-28 19:22:00,
2013-03-28 15:27:00,39.1,23.9,30.29,WNW,290,5.0,14.0,54,0.08,,---,0.16,VWS V14.01,2013-03-28 19:27:00,
2013-03-28 15:32:00,38.9,23.2,30.29,NNW,333,2.0,13.0,53,0.05,,---,0.16,VWS V14.01,2013-03-28 19:32:00,
2013-03-28 15:37:00,38.9,22.8,30.29,ENE,68,2.0,13.0,52,0.05,,---,0.16,VWS V14.01,2013-03-28 19:37:00,
2013-03-28 15:42:00,38.8,24.0,30.29,WSW,253,2.0,13.0,55,0.05,,---,0.16,VWS V14.01,2013-03-28 19:42:00,
2013-03-28 15:47:00,39.2,24.0,30.28,NNW,332,3.0,13.0,54,0.06,,---,0.17,VWS V14.01,2013-03-28 19:47:00,
2013-03-28 15:52:00,38.8,23.1,30.28,NW,304,3.0,15.0,53,0.06,,---,0.17,VWS V14.01,2013-03-28 19:52:00,
2013-03-28 15:57:00,38.6,23.0,30.28,WNW,286,3.0,15.0,53,0.06,,---,0.17,VWS V14.01,2013-03-28 19:57:00,
2013-03-28 16:02:00,38.9,23.7,30.28,West,280,3.0,8.0,54,0.03,,---,0.17,VWS V14.01,2013-03-28 20:02:00,
2013-03-28 16:07:00,39.5,24.2,30.28,NNE,17,8.0,10.0,54,0.03,,---,0.17,VWS V14.01,2013-03-28 20:07:00,
2013-03-28 16:12:00,39.3,24.1,30.28,WNW,293,6.0,10.0,54,0.03,,---,0.17,VWS V14.01,2013-03-28 20:12:00,
2013-03-28 16:17:00,39.0,24.2,30.28,NW,318,2.0,10.0,55,0.03,,---,0.17,VWS V14.01,2013-03-28 20:17:00,
2013-03-28 16:22:00,38.7,23.1,30.28,WNW,290,3.0,11.0,53,0.03,,---,0.17,VWS V14.01,2013-03-28 20:22:00,
2013-03-28 16:28:00,38.4,23.2,30.29,WNW,284,3.0,16.0,54,0.03,,---,0.17,VWS V14.01,2013-03-28 20:28:00,
2013-03-28 16:33:00,39.0,23.3,30.28,NW,305,6.0,8.0,53,0.02,,---,0.18,VWS V14.01,2013-03-28 20:33:00,
2013-03-28 16:38:00,39.5,23.4,30.28,WSW,249,5.0,11.0,52,0.02,,---,0.18,VWS V14.01,2013-03-28 20:38:00,
2013-03-28 16:43:00,39.4,24.1,30.28,WNW,297,5.0,13.0,54,0.02,,---,0.18,VWS V14.01,2013-03-28 20:43:00,
2013-03-28 16:48:00,39.3,24.1,30.28,NW,304,6.0,13.0,54,0.02,,---,0.18,VWS V14.01,2013-03-28 20:48:00,
2013-03-28 16:53:00,39.9,23.7,30.28,SW,219,6.0,14.0,52,0.02,,---,0.18,VWS V14.01,2013-03-28 20:53:00,
2013-03-28 16:58:00,39.6,23.4,30.28,NE,41,4.0,14.0,52,0.02,,---,0.18,VWS V14.01,2013-03-28 20:58:00,
2013-03-28 17:03:00,39.0,22.4,30.28,WNW,290,7.0,11.0,51,0.02,,---,0.19,VWS V14.01,2013-03-28 21:03:00,
2013-03-28 17:08:00,38.5,22.9,30.28,WNW,300,6.0,11.0,53,0.02,,---,0.19,VWS V14.01,2013-03-28 21:08:00,
2013-03-28 17:13:00,38.4,23.7,30.28,NW,312,2.0,11.0,55,0.02,,---,0.19,VWS V14.01,2013-03-28 21:13:00,
2013-03-28 17:18:00,38.6,24.7,30.29,SW,222,0.0,11.0,57,0.02,,---,0.19,VWS V14.01,2013-03-28 21:18:00,
2013-03-28 17:23:00,39.1,24.3,30.29,ENE,63,1.0,11.0,55,0.02,,---,0.19,VWS V14.01,2013-03-28 21:23:00,
2013-03-28 17:28:00,39.5,23.4,30.28,WNW,300,4.0,11.0,52,0.02,,---,0.19,VWS V14.01,2013-03-28 21:28:00,
2013-03-28 17:33:00,39.0,23.3,30.29,WNW,300,3.0,11.0,53,0.01,,---,0.19,VWS V14.01,2013-03-28 21:33:00,
2013-03-28 17:38:00,39.0,23.3,30.29,WSW,253,2.0,13.0,53,0.01,,---,0.19,VWS V14.01,2013-03-28 21:38:00,
2013-03-28 17:43:00,39.0,23.3,30.29,NW,304,1.0,13.0,53,0.01,,---,0.19,VWS V14.01,2013-03-28 21:43:00,
2013-03-28 17:48:00,38.9,23.2,30.29,NW,305,2.0,13.0,53,0.01,,---,0.19,VWS V14.01,2013-03-28 21:48:00,
2013-03-28 17:53:00,38.6,23.8,30.29,NW,304,7.0,13.0,55,0.01,,---,0.19,VWS V14.01,2013-03-28 21:53:00,
2013-03-28 17:58:00,38.6,23.8,30.29,NNW,346,2.0,13.0,55,0.01,,---,0.19,VWS V14.01,2013-03-28 21:58:00,
2013-03-28 18:03:00,38.4,23.7,30.29,WNW,302,4.0,10.0,55,0.01,,---,0.19,VWS V14.01,2013-03-28 22:03:00,
2013-03-28 18:08:00,38.3,23.6,30.29,WNW,293,6.0,10.0,55,0.01,,---,0.19,VWS V14.01,2013-03-28 22:08:00,
2013-03-28 18:13:00,38.7,24.4,30.29,NNW,333,3.0,10.0,56,0.01,,---,0.19,VWS V14.01,2013-03-28 22:13:00,
2013-03-28 18:18:00,38.8,23.6,30.29,NNW,336,3.0,10.0,54,0.02,,---,0.20,VWS V14.01,2013-03-28 22:18:00,
2013-03-28 18:23:00,38.9,23.2,30.29,NNW,348,3.0,10.0,53,0.02,,---,0.20,VWS V14.01,2013-03-28 22:23:00,
2013-03-28 18:28:00,39.4,24.6,30.29,WNW,294,4.0,10.0,55,0.02,,---,0.20,VWS V14.01,2013-03-28 22:28:00,
2013-03-28 18:33:00,39.9,23.7,30.29,WNW,293,9.0,14.0,52,0.01,,---,0.20,VWS V14.01,2013-03-28 22:33:00,
2013-03-28 18:38:00,39.9,23.3,30.30,WSW,250,3.0,14.0,51,0.01,,---,0.20,VWS V14.01,2013-03-28 22:38:00,
2013-03-28 18:43:00,39.6,23.9,30.30,SW,215,5.0,14.0,53,0.01,,---,0.20,VWS V14.01,2013-03-28 22:43:00,
2013-03-28 18:48:00,39.3,23.6,30.30,WNW,286,3.0,14.0,53,0.01,,---,0.20,VWS V14.01,2013-03-28 22:48:00,
2013-03-28 18:53:00,39.4,24.1,30.30,NW,314,1.0,14.0,54,0.01,,---,0.20,VWS V14.01,2013-03-28 22:53:00,
2013-03-28 18:58:00,39.3,24.1,30.29,SSW,207,5.0,14.0,54,0.01,,---,0.20,VWS V14.01,2013-03-28 22:58:00,
2013-03-28 19:03:00,38.7,23.1,30.29,WSW,245,5.0,8.0,53,0.01,,---,0.20,VWS V14.01,2013-03-28 23:03:00,
2013-03-28 19:08:00,38.2,23.0,30.30,NW,323,1.0,8.0,54,0.01,,---,0.20,VWS V14.01,2013-03-28 23:08:00,
2013-03-28 19:13:00,37.9,23.2,30.30,WNW,290,3.0,8.0,55,0.01,,---,0.20,VWS V14.01,2013-03-28 23:13:00,
2013-03-28 19:18:00,37.6,22.9,30.30,WNW,285,1.0,8.0,55,0.01,,---,0.20,VWS V14.01,2013-03-28 23:18:00,
2013-03-28 19:23:00,37.3,23.1,30.30,WNW,285,2.0,8.0,56,0.01,,---,0.20,VWS V14.01,2013-03-28 23:23:00,
2013-03-28 19:28:00,37.1,22.9,30.30,NNW,328,2.0,8.0,56,0.01,,---,0.20,VWS V14.01,2013-03-28 23:28:00,
2013-03-28 19:33:00,36.9,23.5,30.30,SSW,194,0.0,4.0,58,0.00,,---,0.20,VWS V14.01,2013-03-28 23:33:00,
2013-03-28 19:38:00,36.5,23.1,30.30,West,280,1.0,4.0,58,0.00,,---,0.20,VWS V14.01,2013-03-28 23:38:00,
2013-03-28 19:43:00,36.3,23.4,30.30,WNW,289,0.0,4.0,59,0.00,,---,0.20,VWS V14.01,2013-03-28 23:43:00,
2013-03-28 19:48:00,35.9,23.4,30.30,NW,312,0.0,4.0,60,0.00,,---,0.20,VWS V14.01,2013-03-28 23:48:00,
2013-03-28 19:53:00,35.6,23.1,30.30,West,280,0.0,4.0,60,0.00,,---,0.20,VWS V14.01,2013-03-28 23:53:00,
2013-03-28 19:58:00,35.3,23.2,30.31,NW,325,0.0,4.0,61,0.00,,---,0.20,VWS V14.01,2013-03-28 23:58:00,
2013-03-28 20:03:00,34.9,23.2,30.31,NW,324,0.0,1.0,62,0.00,,---,0.20,VWS V14.01,2013-03-29 00:03:00,
2013-03-28 20:08:00,34.4,22.7,30.31,WSW,255,0.0,1.0,62,0.00,,---,0.20,VWS V14.01,2013-03-29 00:08:00,
2013-03-28 20:13:00,34.2,22.9,30.31,SW,221,0.0,1.0,63,0.00,,---,0.20,VWS V14.01,2013-03-29 00:13:00,
2013-03-28 20:18:00,34.0,22.7,30.31,SW,221,0.0,1.0,63,0.00,,---,0.20,VWS V14.01,2013-03-29 00:18:00,
2013-03-28 20:23:00,33.9,22.6,30.31,NW,325,0.0,1.0,63,0.00,,---,0.20,VWS V14.01,2013-03-29 00:23:00,
2013-03-28 20:28:00,33.8,22.5,30.31,NW,325,0.0,1.0,63,0.00,,---,0.20,VWS V14.01,2013-03-29 00:28:00,
2013-03-28 20:34:00,33.4,22.5,30.32,NW,324,0.0,0.0,64,0.00,,---,0.20,VWS V14.01,2013-03-29 00:34:00,
2013-03-28 20:39:00,33.1,22.6,30.32,NW,325,0.0,0.0,65,0.00,,---,0.20,VWS V14.01,2013-03-29 00:39:00,
2013-03-28 20:44:00,32.9,22.4,30.32,WSW,238,0.0,1.0,65,0.00,,---,0.20,VWS V14.01,2013-03-29 00:44:00,
2013-03-28 20:49:00,32.9,22.4,30.32,WSW,238,0.0,1.0,65,0.00,,---,0.20,VWS V14.01,2013-03-29 00:49:00,
2013-03-28 20:54:00,32.8,22.3,30.32,WSW,238,0.0,1.0,65,0.00,,---,0.20,VWS V14.01,2013-03-29 00:54:00,
2013-03-28 20:59:00,32.4,22.3,30.32,WSW,238,0.0,1.0,66,0.00,,---,0.20,VWS V14.01,2013-03-29 00:59:00,
2013-03-28 21:04:00,32.4,22.7,30.32,WSW,238,0.0,1.0,67,0.00,,---,0.20,VWS V14.01,2013-03-29 01:04:00,
2013-03-28 21:09:00,32.3,22.6,30.32,WSW,238,0.0,1.0,67,0.00,,---,0.20,VWS V14.01,2013-03-29 01:09:00,
2013-03-28 21:14:00,31.9,22.2,30.32,WSW,238,0.0,1.0,67,0.00,,---,0.20,VWS V14.01,2013-03-29 01:14:00,
2013-03-28 21:19:00,31.6,22.3,30.33,WSW,238,0.0,1.0,68,0.00,,---,0.20,VWS V14.01,2013-03-29 01:19:00,
2013-03-28 21:24:00,31.2,22.2,30.33,WSW,238,0.0,1.0,69,0.00,,---,0.20,VWS V14.01,2013-03-29 01:24:00,
2013-03-28 21:29:00,30.9,22.3,30.33,WSW,238,0.0,1.0,70,0.00,,---,0.20,VWS V14.01,2013-03-29 01:29:00,
2013-03-28 21:34:00,31.2,22.2,30.33,WSW,238,0.0,0.0,69,0.00,,---,0.20,VWS V14.01,2013-03-29 01:34:00,
2013-03-28 21:39:00,31.1,22.1,30.33,WSW,238,0.0,0.0,69,0.00,,---,0.20,VWS V14.01,2013-03-29 01:39:00,
2013-03-28 21:44:00,30.8,22.2,30.33,WSW,238,0.0,0.0,70,0.00,,---,0.20,VWS V14.01,2013-03-29 01:44:00,
2013-03-28 21:49:00,30.4,21.8,30.33,WSW,238,0.0,0.0,70,0.00,,---,0.20,VWS V14.01,2013-03-29 01:49:00,
2013-03-28 21:54:00,30.3,22.0,30.33,WSW,238,0.0,0.0,71,0.00,,---,0.20,VWS V14.01,2013-03-29 01:54:00,
2013-03-28 21:59:00,30.3,22.0,30.33,WSW,237,0.0,0.0,71,0.00,,---,0.20,VWS V14.01,2013-03-29 01:59:00,
2013-03-28 22:04:00,30.6,22.3,30.33,WSW,246,0.0,1.0,71,0.00,,---,0.20,VWS V14.01,2013-03-29 02:04:00,
2013-03-28 22:09:00,30.8,22.2,30.33,WSW,248,0.0,1.0,70,0.00,,---,0.20,VWS V14.01,2013-03-29 02:09:00,
2013-03-28 22:14:00,31.0,22.4,30.34,WSW,248,0.0,1.0,70,0.00,,---,0.20,VWS V14.01,2013-03-29 02:14:00,
2013-03-28 22:19:00,31.3,22.3,30.34,NW,321,0.0,2.0,69,0.00,,---,0.20,VWS V14.01,2013-03-29 02:19:00,
2013-03-28 22:24:00,31.5,22.5,30.34,NW,306,0.0,2.0,69,0.00,,---,0.20,VWS V14.01,2013-03-29 02:24:00,
2013-03-28 22:29:00,31.3,22.3,30.34,NW,305,0.0,2.0,69,0.00,,---,0.20,VWS V14.01,2013-03-29 02:29:00,
2013-03-28 22:34:00,31.0,22.4,30.34,NW,304,1.0,1.0,70,0.00,,---,0.20,VWS V14.01,2013-03-29 02:34:00,
2013-03-28 22:39:00,31.0,22.4,30.34,NW,313,0.0,1.0,70,0.00,,---,0.20,VWS V14.01,2013-03-29 02:39:00,
2013-03-28 22:44:00,31.0,22.7,30.34,WNW,282,1.0,1.0,71,0.00,,---,0.20,VWS V14.01,2013-03-29 02:44:00,
2013-03-28 22:49:00,31.2,22.6,30.34,West,281,0.0,1.0,70,0.00,,---,0.20,VWS V14.01,2013-03-29 02:49:00,
2013-03-28 22:54:00,31.4,22.8,30.34,WNW,288,0.0,3.0,70,0.00,,---,0.20,VWS V14.01,2013-03-29 02:54:00,
2013-03-28 22:59:00,31.3,22.7,30.34,WNW,283,0.0,3.0,70,0.00,,---,0.20,VWS V14.01,2013-03-29 02:59:00,
2013-03-28 23:04:00,31.3,22.7,30.34,WSW,243,0.0,1.0,70,0.00,,---,0.20,VWS V14.01,2013-03-29 03:04:00,
2013-03-28 23:09:00,31.2,22.6,30.34,WNW,295,0.0,1.0,70,0.00,,---,0.20,VWS V14.01,2013-03-29 03:09:00,
2013-03-28 23:14:00,31.4,22.8,30.34,West,269,1.0,2.0,70,0.00,,---,0.20,VWS V14.01,2013-03-29 03:14:00,
2013-03-28 23:19:00,31.3,22.7,30.34,WSW,246,0.0,2.0,70,0.00,,---,0.20,VWS V14.01,2013-03-29 03:19:00,
2013-03-28 23:24:00,31.3,22.7,30.34,WSW,255,0.0,2.0,70,0.00,,---,0.20,VWS V14.01,2013-03-29 03:24:00,
2013-03-28 23:29:00,31.1,22.5,30.34,WSW,252,1.0,2.0,70,0.00,,---,0.20,VWS V14.01,2013-03-29 03:29:00,
2013-03-28 23:34:00,31.0,22.4,30.34,NNW,328,0.0,1.0,70,0.00,,---,0.20,VWS V14.01,2013-03-29 03:34:00,
2013-03-28 23:39:00,30.9,22.6,30.34,NW,314,0.0,1.0,71,0.00,,---,0.20,VWS V14.01,2013-03-29 03:39:00,
2013-03-28 23:44:00,30.7,22.4,30.34,NW,315,0.0,1.0,71,0.00,,---,0.20,VWS V14.01,2013-03-29 03:44:00,
2013-03-28 23:49:00,30.5,22.6,30.34,WSW,248,0.0,1.0,72,0.00,,---,0.20,VWS V14.01,2013-03-29 03:49:00,
2013-03-28 23:54:00,30.3,22.4,30.34,WSW,253,0.0,1.0,72,0.00,,---,0.20,VWS V14.01,2013-03-29 03:54:00,
2013-03-28 23:59:00,30.3,22.4,30.34,WSW,252,1.0,1.0,72,0.00,,---,0.20,VWS V14.01,2013-03-29 03:59:00,